2019 RE2
ephemeris date magn radius delta ra dec elong phase
Today5 Sep 202627.51.500 AU1.134 AU16h30m-30°48'88.7°42.2°
2019 RE2 - 2026-09-05
astro.vanbuitenen.nl


 
-1 year
-1 month
-1 day
Now
+1 day
+1 month
+1 year

The interactive orbit chart above shows the body's path through the solar system and its position at the given date. Green and blue lines are shown perpendicular to the ecliptic plane: Green if the path is above the ecliptic plane, blue if it is below. (Left-click and drag to rotate the view; Right-click and drag to move the view; Use scroll wheel to zoom in our out.)

The orbital elements of 2019 RE2 are:

            e (Eccentricity)                : 0.3633218
            a (Semimajor axis)              : 1.4798746
            i (Inclination)                 : 8.72892
            Ω (Longitude of ascending node) : 342.95905
            ω (Argument of perihelion)      : 63.35332
            M (Mean anomaly)                : 240.48314
            Epoch                           : 2026 Jun 09

            L (Longitude of perihelion)     : 46.04387
            B (Latitude of perihelion)      : 7.79570
            P (Orbital period in years)     : 1.80            
        

The light curve chart below shows the estimated development of the minor planet's magnitude.


The all-sky chart below shows the path of the minor planet over the same period as the light curve. The current position is marked yellow.





The following chart shows the path of the minor planet in the next few days. The field of view is optimized for (~10x50) binoculars and finderscopes.




Ephemerides:
Date       Time       RA (2000)    DEC (2000)    delta   radius  elong  phase   PA    magn
2026-09-05 00:00 UT   16 30 56.4   -30 48 17     1.134    1.500   88.7   42.2    99   27.5 
2026-09-05 21:46 UT   16 32 28.9   -30 44 13     1.138    1.495   88.1   42.4    99   27.5 
2026-09-06 00:00 UT   16 32 38.5   -30 43 48     1.138    1.495   88.1   42.4    99   27.5 
2026-09-07 00:00 UT   16 34 22.5   -30 39 22     1.142    1.490   87.5   42.5    99   27.5 
2026-09-08 00:00 UT   16 36 08.3   -30 34 59     1.147    1.485   86.9   42.7    99   27.5 
2026-09-09 00:00 UT   16 37 56.0   -30 30 37     1.151    1.480   86.3   42.8    99   27.5 
2026-09-10 00:00 UT   16 39 45.4   -30 26 17     1.155    1.474   85.7   42.9    99   27.5 
2026-09-11 00:00 UT   16 41 36.7   -30 21 58     1.159    1.469   85.1   43.1    98   27.5 
2026-09-12 00:00 UT   16 43 29.7   -30 17 40     1.163    1.464   84.6   43.2    98   27.5 
2026-09-13 00:00 UT   16 45 24.5   -30 13 23     1.167    1.459   84.0   43.3    98   27.5 
2026-09-14 00:00 UT   16 47 21.0   -30 09 07     1.171    1.454   83.4   43.4    98   27.5 
2026-09-15 00:00 UT   16 49 19.2   -30 04 50     1.174    1.448   82.9   43.6    98   27.5 
2026-09-16 00:00 UT   16 51 19.1   -30 00 32     1.178    1.443   82.3   43.7    98   27.5 
2026-09-17 00:00 UT   16 53 20.6   -29 56 15     1.182    1.438   81.8   43.8    98   27.5 
2026-09-18 00:00 UT   16 55 23.7   -29 51 56     1.185    1.433   81.3   43.9    98   27.5 
2026-09-19 00:00 UT   16 57 28.5   -29 47 35     1.189    1.427   80.7   44.0    97   27.5 
2026-09-20 00:00 UT   16 59 34.8   -29 43 13     1.192    1.422   80.2   44.1    97   27.5 
2026-09-21 00:00 UT   17 01 42.7   -29 38 49     1.195    1.417   79.7   44.2    97   27.5 
2026-09-22 00:00 UT   17 03 52.1   -29 34 23     1.199    1.411   79.2   44.3    97   27.5 
2026-09-23 00:00 UT   17 06 03.1   -29 29 54     1.202    1.406   78.7   44.4    97   27.5 
2026-09-24 00:00 UT   17 08 15.5   -29 25 21     1.205    1.401   78.2   44.5    97   27.5 


    Terminology:
            
    delta:  distance between minor planet and earth in AU
    radius: distance between minor planet and sun in AU
    magn:   magnitude (brightness) estimate    
    ra:     right ascension in hours (24h = 360deg)
    dec:    declination in degrees
    elong:  elongation in degrees (angle sun-earth-minor planet)    
    phase:  phase angle in degrees (angle sun-minor planet-earth)        
    AU:     Astronomical Unit (mean distance between earth and sun: 149597870.7 km
    

Orbital elements provided by the MPC (Minor Planet Center).
Calculations by a modified version of AAPlus, a C# implementation of the AA+ project by PJ Naughter from the algorithms presented in the book "Astronomical Algorithms" by Jean Meeus.
NGC2000 dso catalog and star labels from VizieR as provided by the Strasbourg astronomical Data Center.
Tycho2 catalog from the ESO archive.